OpenBCM V1.08-5-g2f4a (Linux)

Packet Radio Mailbox

IZ3LSV

[San Dona' di P. JN]

 Login: GUEST





  
I0OJJ  > KEPS     09.04.25 02:34l 360 Lines 17099 Bytes #28 (0) @ AMSAT
BID : ORB25099.1
Read: GUEST
Subj: 2Line Orbital Elements 25099.AMSAT
Path: IZ3LSV<DB0ERF<DK0WUE<DK0WUE<F1UBL<K7EK<N2NOV<I0OJJ<I0OJJ
Sent: 250409/0025z @:I0OJJ.ITA.EU [Rome] obcm1.08-6-g5b69

>From i0ojj%i0ojj.ita.eu@i0ojj.ampr.org Wed Apr  9 02:25:07 2025
Received: from i0ojj.ampr.org by i0ojj.ampr.org (JNOS2.0p.7) with SMTP
	id AA17029510 ; Wed, 09 Apr 2025 02:25:07 +0200
Message-Id: <ORB25099.1@i0ojj.bbs>
>From: i0ojj@i0ojj.ita.eu
X-JNOS-User-Port: Telnet   (i0ojj @ 44.134.109.10)  -> Sending message

From: I0OJJ @ I0OJJ.ITA.EU (Gustavo)
To:   KEPS @ AMSAT
X-Info: This message was generated automatically


QST de W1STR

AMSAT Orbital Elements for Amateur Satellites in TLE Format
>From Orbital Analysis Office
New England Sci-Tech STEM Education Center
Natick, MA April 09, 2025
To all radio amateurs


These element sets describe the orbits of various satellites 
in use by the amateur radio community. For details see:
www.amsat.org/keplerian-elements-formats/

A daily update of element sets is available at:
www.amsat.org/tle/daily-bulletin.txt
or without bulletin text:
www.amsat.org/tle/dailytle.txt


AO-07
1 07530U 74089B   25098.50306159 -.00000015  00000-0  19420-3 0  9992
2 07530 101.9951 102.1028 0011904 239.7155 272.5538 12.53688076306045
UO-11
1 14781U 84021B   25098.85523839  .00003561  00000-0  38300-3 0  9995
2 14781  97.7484  66.4776 0007962 168.2624 191.8781 14.89115663213455
AO-27
1 22825U 93061C   25098.60821180  .00000292  00000-0  12865-3 0  9996
2 22825  98.7427 159.8379 0007339 297.6765  62.3672 14.30770136644859
FO-29
1 24278U 96046B   25098.27724508  .00000043  00000-0  77690-4 0  9997
2 24278  98.5822   0.3548 0350534 143.8722 218.6659 13.53242935414346
NOAA-15
1 25338U 98030A   25098.82626923  .00000392  00000-0  17892-3 0  9997
2 25338  98.5416 125.4273 0010466 173.6741 186.4573 14.26936022399590
GO-32
1 25397U 98043D   25098.52142393  .00000257  00000-0  13152-3 0  9992
2 25397  98.9659  76.3617 0002095  56.2748 303.8630 14.24291276389452
ISS
1 25544U 98067A   25098.81058533  .00017229  00000-0  31609-3 0  9990
2 25544  51.6370 290.6401 0004984  22.5410 337.5797 15.49363734504404
NO-44
1 26931U 01043C   25098.26341949  .00000474  00000-0  20865-3 0  9990
2 26931  67.0500 288.9561 0005571 269.6964  90.3499 14.31687908228182
SO-50
1 27607U 02058C   25098.78888550  .00003943  00000-0  51090-3 0  9997
2 27607  64.5558  31.2376 0049020 348.8293  11.1720 14.81371309200282
CO-55
1 27844U 03031E   25098.49430751  .00000809  00000-0  37183-3 0  9991
2 27844  98.6787 107.5645 0009870  15.3976 344.7502 14.23926223129804
CO-57
1 27848U 03031J   25098.48419497  .00000683  00000-0  32101-3 0  9993
2 27848  98.6814 107.6067 0010104  31.6668 328.5116 14.23270699129539
RS-22
1 27939U 03042A   25098.83698925  .00002909  00000-0  47018-3 0  9996
2 27939  98.3223 266.8218 0011219 200.1539 291.7275 14.72118187151747
NOAA-18
1 28654U 05018A   25098.83004154  .00000384  00000-0  22714-3 0  9992
2 28654  98.8434 178.9986 0013168 306.7575  53.2388 14.13569242 25028
CO-58
1 28895U 05043F   25098.34162298  .00004339  00000-0  71921-3 0  9995
2 28895  98.2384 241.9585 0015571 141.8766 218.3545 14.70684680 37792
CO-65
1 32785U 08021C   25098.46770253  .00012189  00000-0  89631-3 0  9995
2 32785  97.7787  69.2266 0011547  65.8635 294.3796 15.03502534919742
AAUSAT2
1 32788U 08021F   25098.47578308  .00278475  00000-0  25793-2 0  9996
2 32788  97.6030  93.5576 0007931 134.7005 225.4902 15.66599786923707
CO-66
1 32791U 08021J   25098.40473309  .00024148  00000-0  12349-2 0  9997
2 32791  97.7243  77.1590 0005833  51.6196 308.5559 15.16631738921066
RS-30
1 32953U 08025A   25098.83541156  .00000056  00000-0  33219-3 0  9996
2 32953  82.4982 265.5813 0019659 178.0076 182.1085 12.43161896765864
NOAA-19
1 33591U 09005A   25098.82641716  .00000358  00000-0  21480-3 0  9998
2 33591  99.0024 163.1718 0014052 174.1295 186.0044 14.13334525833384
SRMSAT
1 37841U 11058D   25098.46221867  .00000609  00000-0  18710-3 0  9993
2 37841  19.9706 170.4422 0011914 101.2145   4.3766 14.11406251696324
ZACUBE-1
1 39417U 13066B   25098.59534827  .00009411  00000-0  83136-3 0  9996
2 39417  97.7733  55.9930 0043002 258.9571 100.6812 14.95857359615645
Delfi-N3xt
1 39428U 13066N   25098.35316814  .00011189  00000-0  11665-2 0  9998
2 39428  97.8358  16.7501 0085608 204.2787 155.4386 14.87228207609823
GOMX-1
1 39430U 13066Q   25098.84773878  .00004057  00000-0  63570-3 0  9991
2 39430  97.6926 321.2839 0133996  30.5816 330.3115 14.67315104606350
LO-74
1 39440U 13066AA  25098.41022370  .00010086  00000-0  10322-2 0  9994
2 39440  97.8445  43.4468 0064050  26.8741 333.5770 14.89182549612188
AO-73
1 39444U 13066AE  25098.44942785  .00014134  00000-0  10895-2 0  9995
2 39444  97.7670  60.2150 0039717 235.2990 124.4490 15.01097155614260
DTUSAT-2
1 40030U 14033W   25098.57209824  .00014351  00000-0  95913-3 0  9993
2 40030  98.0504  67.4620 0006907 270.8301  89.2134 15.07079038587055
EO-80
1 40032U 14033Y   25098.72820694  .00014665  00000-0  97790-3 0  9999
2 40032  98.0383  67.3658 0007814 196.9338 163.1629 15.07151412587573
LILACSAT-2
1 40908U 15049K   25098.80555715  .00020974  00000-0  57844-3 0  9993
2 40908  97.5120 117.7182 0010339  34.4869 325.7044 15.37080012528731
IO-86
1 40931U 15052B   25038.81889873  .00001817  00000-0  15548-3 0  9993
2 40931   6.0001 108.1159 0012838 187.7041 172.2889 14.78568669506492
Horyu-4
1 41340U 16012D   25098.45975398  .00036879  00000-0  10993-2 0  9993
2 41340  30.9972 188.7318 0008827 131.9547 228.1851 15.33417581503233
Lapan A3
1 41603U 16040E   25098.87623755  .00006171  00000-0  21941-3 0  9997
2 41603  97.1392 105.9227 0012862 124.2766 235.9695 15.29261472488356
CAS-2T
1 41847U 16066G   25098.29276599  .00002060  00000-0  30169-3 0  9996
2 41847  98.4229 173.2914 0346890   7.1276 353.4666 14.43297312442032
CAS-4B
1 42759U 17034B   25098.91234080  .00077425  00000-0  11172-2 0  9992
2 42759  43.0101 327.2378 0019101 224.4670 135.4659 15.54830745432977
CAS-4A
1 42761U 17034D   25098.85742356  .00090812  00000-0  12700-2 0  9991
2 42761  43.0134 325.2498 0020547 228.5125 131.3974 15.55580325432986
TechnoSat
1 42829U 17042E   25098.73357964  .00007214  00000-0  56561-3 0  9997
2 42829  97.3917 270.4035 0014761 125.5670 234.6933 15.01166435421446
AO-91
1 43017U 17073E   25097.59511356  .00015810  00000-0  82612-3 0  9998
2 43017  97.5346 329.9777 0176997  21.4048 339.4461 15.03353472399748
S-Net D
1 43186U 18014G   25098.46689866  .00010337  00000-0  62211-3 0  9992
2 43186  97.5681   2.0243 0011225  80.3665 279.8833 15.10962279392994
S-Net B
1 43187U 18014H   25098.47152479  .00010285  00000-0  61921-3 0  9998
2 43187  97.5688   1.9975 0011863  76.2868 283.9682 15.10943395392995
S-Net A
1 43188U 18014J   25098.46749860  .00009922  00000-0  59717-3 0  9990
2 43188  97.5695   2.1353 0011844  76.7904 283.4646 15.10966625392998
S-Net C
1 43189U 18014K   25098.27511867  .00010399  00000-0  62594-3 0  9991
2 43189  97.5709   1.9488 0013232  70.9648 289.3014 15.10935604391519
Ten-Koh
1 43677U 18084G   25098.44089351  .00005120  00000-0  41482-3 0  9996
2 43677  98.0946 268.2223 0010158 123.4567 236.7627 15.00149431350923
PO-101
1 43678U 18084H   25098.80850593  .00005067  00000-0  43501-3 0  9995
2 43678  98.0986 272.6014 0009195 131.6595 228.5414 14.97914499351132
QO-100
1 43700U 18090A   25098.54170848  .00000131  00000-0  00000-0 0  9998
2 43700   0.0213 190.0809 0001677 221.5802   6.1942  1.00270249 23316
MinXSS-2
1 43758U 18099A   25098.57058896  .00026491  00000-0  11170-2 0  9990
2 43758  97.5081 164.4915 0011810  21.4676 338.7054 15.23226091347528
AO-95
1 43770U 18099N   25098.56239837  .00016990  00000-0  89185-3 0  9994
2 43770  97.4993 157.3729 0012245  73.4582 286.7994 15.15731306347158
RANGE-A
1 43773U 18099R   25098.12561850  .00008759  00000-0  56731-3 0  9997
2 43773  97.4567 148.3445 0012747  53.9150 306.3257 15.08301971346809
MOVE-II
1 43780U 18099Y   25098.16985671  .00149220  00000-0  22631-2 0  9990
2 43780  97.4716 170.1253 0000759 288.0002  72.1168 15.54088189348041
SNUSat 2
1 43782U 18099AA  25098.87953033  .00014753  00000-0  82869-3 0  9999
2 43782  97.4677 154.9283 0012145  15.8021 344.3587 15.13353191347165
SnugLite
1 43784U 18099AC  25098.40753504  .00016980  00000-0  88529-3 0  9994
2 43784  97.4490 153.9119 0003732  40.0898 320.0610 15.16029091347217
ITASat 1
1 43786U 18099AE  25098.88636236  .00013036  00000-0  76252-3 0  9999
2 43786  97.4645 154.6181 0015889  64.1636 296.1231 15.11877631347130
EAGLET 1
1 43790U 18099AJ  25098.40684676  .00008113  00000-0  52521-3 0  9996
2 43790  97.4842 154.2969 0013316  49.8843 310.3550 15.08339615346691
ESEO
1 43792U 18099AL  25098.53172449  .00003555  00000-0  27306-3 0  9990
2 43792  97.4575 148.4938 0012329  26.5904 333.5951 15.02303596346505
CSIM
1 43793U 18099AM  25098.27232581  .00138404  00000-0  20691-2 0  9997
2 43793  97.4903 172.3743 0003919 312.3691  47.7230 15.54518365347903
JO-97
1 43803U 18099AX  25098.11117494  .00019700  00000-0  94374-3 0  9994
2 43803  97.4738 157.8018 0007217  15.0858 345.0590 15.18948390347280
Suomi 100
1 43804U 18099AY  25098.42637552  .00017857  00000-0  90807-3 0  9999
2 43804  97.4804 157.5730 0012364  11.8544 348.2977 15.16839438347271
ISAT
1 43879U 18111D   25098.56702948  .00034880  00000-0  13201-2 0  9990
2 43879  97.5995  11.7102 0011853  64.3128 295.9333 15.26789015344224
UWE-4
1 43880U 18111E   25098.19955163  .00026393  00000-0  11047-2 0  9996
2 43880  97.5935  10.2210 0015128  72.9769 287.3124 15.23436522344120
Sparrow
1 43881U 18111F   25098.52999076  .00035600  00000-0  13055-2 0  9997
2 43881  97.6127  14.3233 0010281  95.1043 265.1369 15.27843831344306
Prox-1
1 44339U 19036A   25098.35381397  .00018319  00000-0  24295-2 0  9991
2 44339  23.9961 110.0727 0007469  88.5509 271.5843 14.78246414308792
